sat.trackr.live / text

‹ back to catalog

STARLINK-4734

NORAD 53790 · 2022-111T

PAYLOAD ACTIVE UNKNOWN

§ Identity

Operator
Country
US
Launch date
2022-09-11
Launch site
AFETR
Launch vehicle
Mass (kg)
RCS (m²)

Purposes: comms

External: N2YO · Heavens-Above · Gunter

§ Orbital elements

Epoch: 2026-09-20T22:55:36.643008Z

Period
92.02 min
Inclination
53.1576°
Eccentricity
0.0001144
Mean motion
15.64887671 rev/d
Perigee alt
372.8 km
Apogee alt
374.3 km
Semi-major
6,751.7 km
B*
2.2109e-4
RAAN
97.8870°
Arg perigee
84.0745°
Mean anomaly
276.0401°
Rev number
22,344

§ Raw data

STARLINK-47341 53790U 22111T   26263.95528522  .00021526  00000+0  22109-3 0  99902 53790  53.1576  97.8870 0001144  84.0745 276.0401 15.64887671223448

JSON: /api/v1/satellites/53790 · /tle

For live sub-satellite position, see the globe view (requires WebGL).

§ Visibility from observer

Set your observer location to see the next 7 days of passes ≥ 10°. The values pass through the URL so the page stays shareable.

No JS? Fill the form by hand. The geolocation button needs JavaScript.